,,Stat6,,Stat2,,Stat8,,Stat9,,Stat10,,Wind1,,Wind1
time,status,PA1M_AVG,status,PR1M_SUM,status,RH1M_AVG,status,SR1M_AVG,status,TA1M_AVG,status,W1dAve1m,status,W1sAve1m
2007-01-02, 23:09:00,VALID,916.888,VALID,0,VALID,100,VALID,79.1646,VALID,20.5265,VALID,73,VALID,0.164253
2007-01-02, 23:10:00,VALID,916.882,VALID,0,VALID,100,VALID,76.9401,VALID,20.5298,VALID,72,VALID,0.155869
2007-01-02, 23:11:00,VALID,916.874,VALID,0,VALID,100,VALID,70.6403,VALID,20.5362,VALID,88,VALID,0.21766
2007-01-02, 23:12:00,VALID,916.878,VALID,0,VALID,100,VALID,70.1308,VALID,20.5494,VALID,111,VALID,0.113459
2007-01-02, 23:13:00,VALID,916.875,VALID,0,VALID,100,VALID,68.3818,VALID,20.5876,VALID,266,VALID,0.433984
2007-01-02, 23:14:00,VALID,916.879,VALID,0,VALID,100,VALID,68.7724,VALID,20.6651,VALID,266,VALID,0.245164
2007-01-02, 23:15:00,VALID,916.895,VALID,0,VALID,100,VALID,70.5554,VALID,20.6266,VALID,240,VALID,0.286285
2007-01-02, 23:16:00,VALID,916.893,VALID,0,VALID,100,VALID,60.9951,VALID,20.5879,VALID,262,VALID,0.392671
2007-01-02, 23:17:00,VALID,916.906,VALID,0,VALID,100,VALID,59.5348,VALID,20.6328,VALID,271,VALID,0.247884
2007-01-02, 23:18:00,VALID,916.895,VALID,0,VALID,100,VALID,74.5628,VALID,20.6684,VALID,271,VALID,0.0422585
2007-01-02, 23:19:00,VALID,916.9,VALID,0,VALID,100,VALID,70.3006,VALID,20.72,VALID,272,VALID,0.426417
2007-01-02, 23:20:00,VALID,916.906,VALID,0,VALID,100,VALID,55.1707,VALID,20.7439,VALID,272,VALID,0.211483
2007-01-02, 23:21:00,VALID,916.921,VALID,0,VALID,100,VALID,38.3767,VALID,20.7138,VALID,270,VALID,0.213021
2007-01-02, 23:22:00,VALID,916.935,VALID,0,VALID,100,VALID,30.7183,VALID,20.6043,VALID,139,VALID,0.753534
2007-01-02, 23:23:00,VALID,916.964,VALID,0,VALID,99.9372,VALID,34.9465,VALID,20.4684,VALID,355,VALID,0.68936
2007-01-02, 23:24:00,VALID,916.958,VALID,0,VALID,100,VALID,36.6956,VALID,20.4031,VALID,144,VALID,0.953658
2007-01-02, 23:25:00,VALID,916.96,VALID,0,VALID,100,VALID,47.7161,VALID,20.3891,VALID,281,VALID,1.41315
2007-01-02, 23:26:00,VALID,916.966,VALID,0,VALID,100,VALID,47.1388,VALID,20.3966,VALID,231,VALID,0.662153
2007-01-02, 23:27:00,VALID,916.989,VALID,0,VALID,100,VALID,54.033,VALID,20.3442,VALID,115,VALID,0.78032
2007-01-02, 23:28:00,VALID,917.009,VALID,0,VALID,100,VALID,66.5988,VALID,20.293,VALID,83,VALID,1.08371
2007-01-02, 23:29:00,VALID,917.017,VALID,0,VALID,100,VALID,57.2933,VALID,20.2026,VALID,334,VALID,1.20972
2007-01-02, 23:30:00,VALID,917.032,VALID,0,VALID,100,VALID,44.1841,VALID,20.2384,VALID,268,VALID,1.74273
2007-01-02, 23:31:00,VALID,917.066,VALID,0,VALID,100,VALID,44.9992,VALID,20.2511,VALID,210,VALID,0.975204
2007-01-02, 23:32:00,VALID,917.084,VALID,0,VALID,100,VALID,47.9878,VALID,20.1246,VALID,44,VALID,1.08612
2007-01-02, 23:33:00,VALID,917.102,VALID,0,VALID,100,VALID,56.7669,VALID,20.0991,VALID,264,VALID,1.70941
2007-01-02, 23:34:00,VALID,917.123,VALID,0,VALID,100,VALID,51.2142,VALID,20.0963,VALID,261,VALID,1.86682
2007-01-02, 23:35:00,VALID,917.136,VALID,0,VALID,100,VALID,41.3313,VALID,20.0578,VALID,277,VALID,2.46577
2007-01-02, 23:36:00,VALID,917.163,VALID,0,VALID,100,VALID,27.9844,VALID,20.0409,VALID,281,VALID,1.76488
2007-01-02, 23:37:00,VALID,917.146,VALID,0,VALID,100,VALID,16.828,VALID,19.9702,VALID,282,VALID,2.10052
2007-01-02, 23:38:00,VALID,917.164,VALID,0,VALID,100,VALID,13.245,VALID,19.9548,VALID,270,VALID,1.6317
2007-01-02, 23:39:00,VALID,917.165,VALID,0,VALID,100,VALID,12.9054,VALID,19.8838,VALID,262,VALID,2.14044
2007-01-02, 23:40:00,VALID,917.164,VALID,0.2,VALID,100,VALID,13.2111,VALID,19.8234,VALID,273,VALID,2.34624
2007-01-02, 23:41:00,VALID,917.174,VALID,0,VALID,100,VALID,15.2997,VALID,19.775,VALID,243,VALID,1.40092
2007-01-02, 23:42:00,VALID,917.191,VALID,0,VALID,100,VALID,20.394,VALID,19.7459,VALID,274,VALID,2.75056
2007-01-02, 23:43:00,VALID,917.171,VALID,0,VALID,100,VALID,26.4901,VALID,19.6722,VALID,271,VALID,2.86628
2007-01-02, 23:44:00,VALID,917.22,VALID,0.2,VALID,100,VALID,25.8618,VALID,19.6041,VALID,275,VALID,2.65365
2007-01-02, 23:45:00,VALID,917.251,VALID,0,VALID,100,VALID,26.3542,VALID,19.5237,VALID,275,VALID,2.93445
2007-01-02, 23:46:00,VALID,917.264,VALID,0,VALID,100,VALID,31.1428,VALID,19.4946,VALID,283,VALID,2.45499
2007-01-02, 23:47:00,VALID,917.288,VALID,0,VALID,100,VALID,34.7428,VALID,19.4884,VALID,266,VALID,2.00335
2007-01-02, 23:48:00,VALID,917.288,VALID,0,VALID,100,VALID,23.909,VALID,19.3883,VALID,262,VALID,2.18659
2007-01-02, 23:49:00,VALID,917.317,VALID,0,VALID,100,VALID,21.9392,VALID,19.3464,VALID,277,VALID,2.46493
2007-01-02, 23:50:00,VALID,917.303,VALID,0,VALID,100,VALID,30.2598,VALID,19.2912,VALID,281,VALID,2.69215
2007-01-02, 23:51:00,VALID,917.318,VALID,0,VALID,100,VALID,35.3541,VALID,19.3136,VALID,279,VALID,2.70579
2007-01-02, 23:52:00,VALID,917.314,VALID,0,VALID,100,VALID,34.8956,VALID,19.327,VALID,272,VALID,2.42913
2007-01-02, 23:53:00,VALID,917.284,VALID,0,VALID,100,VALID,37.4767,VALID,19.2239,VALID,243,VALID,2.85565
2007-01-02, 23:54:00,VALID,917.27,VALID,0.2,VALID,100,VALID,53.5575,VALID,19.1845,VALID,266,VALID,2.86699
2007-01-02, 23:55:00,VALID,917.298,VALID,0,VALID,100,VALID,55.2556,VALID,19.1644,VALID,271,VALID,2.15569
2007-01-02, 23:56:00,VALID,917.319,VALID,0,VALID,100,VALID,58.0914,VALID,19.2036,VALID,268,VALID,1.63867
2007-01-02, 23:57:00,VALID,917.341,VALID,0,VALID,100,VALID,64.2724,VALID,19.2071,VALID,279,VALID,1.10361
2007-01-02, 23:58:00,VALID,917.353,VALID,0,VALID,100,VALID,62.8121,VALID,19.2518,VALID,269,VALID,1.1369
2007-01-02, 23:59:00,VALID,917.354,VALID,0,VALID,100,VALID,63.3725,VALID,19.2585,VALID,277,VALID,1.45585
